RH
61 88 89 94 97 95 80 64 53 54 82 88 84 85 84 82 86 89 82 94 95 84 95 94 96 91 82 94 98 99 99 94 87 85 92 88 93 96 94 78 76 88 97
62 85 92 86 96 95 94 89 79 61 83 85 88 97 96 88 97 91 94 97 90 86 96 91 89 90 90 96 99 98 95 75 84 77 69 71 90 94 89 78 83 94 95
75 85 93 85 88 93 90 87 87 72 86 89 88 94 96 96 98 93 94 97 92 87 93 82 88 90 93 95 97 94 84 79 71 69 63 61 86 90 88 86 92 96 97
80 86 84 86 87 86 89 90 87 79 89 88 86 89 93 98 96 92 90 90 82 81 76 83 93 94 94 66 56 54 54 57 48 48 47 49 58 90 92 89 94 98 92
83 80 83 84 84 86 88 91 87 80 83 90 89 91 94 98 94 89 86 79 80 78 84 83 92 92 65 45 40 36 37 55 57 56 60 59 60 80 90 86 88 91 94
82 78 83 83 81 86 90 92 86 81 80 87 89 90 90 94 92 85 81 80 79 81 80 86 89 69 53 48 46 46 52 60 58 60 62 67 77 84 83 81 80 90 97
77 81 91 85 82 86 88 92 86 78 81 89 87 89 94 86 85 81 82 82 78 79 81 90 91 74 66 62 55 54 61 60 56 61 63 70 83 86 85 84 71 61 59
73 85 86 91 80 86 87 91 90 83 83 88 88 94 90 83 86 86 82 82 78 81 93 92 92 79 71 67 63 62 61 64 57 61 65 77 85 89 86 67 58 55 50
72 82 84 92 92 87 81 88 90 90 90 91 92 89 84 82 85 84 82 82 81 84 92 86 76 71 71 70 67 64 62 64 60 62 60 74 74 87 72 68 68 65 63
97 81 85 84 89 90 95 78 91 91 93 91 89 79 81 84 87 86 85 83 84 85 85 80 76 70 68 67 66 65 63 62 60 65 63 66 64 72 64 63 67 69 70
89 89 86 87 78 68 69 83 83 95 95 90 83 83 84 86 91 89 90 87 87 88 88 83 77 69 59 52 54 59 58 56 50 54 60 61 61 74 72 69 68 70 73
78 86 89 84 64 58 64 80 71 82 87 80 81 80 70 72 75 74 93 94 92 90 88 82 73 59 52 57 53 43 57 51 50 51 58 59 59 67 92 77 74 77 77
86 87 83 92 64 59 71 69 61 63 62 62 70 69 59 60 72 82 95 97 96 80 82 73 60 60 53 50 53 52 51 52 51 53 54 53 56 60 69 82 76 82 82
88 82 63 99 64 66 67 66 57 51 53 59 66 58 58 61 69 67 72 73 70 63 58 60 57 52 54 55 55 54 56 57 55 55 56 59 62 63 63 67 72 69 72
96 90 93 99 64 72 81 82 58 52 51 53 60 60 61 61 59 60 59 62 60 56 55 55 54 52 51 54 58 60 57 55 54 54 58 62 66 67 68 68 67 69 70
79 82 83 97 66 60 75 82 86 64 56 60 59 57 57 57 58 59 58 59 60 64 60 59 56 59 58 59 56 56 55 56 57 58 58 60 64 60 60 62 65 62 69
58 62 75 96 78 70 67 69 80 81 75 71 74 69 66 66 62 67 65 73 72 68 63 63 58 59 57 57 60 58 59 57 56 54 53 54 58 60 62 60 61 66 68
93 71 68 90 75 81 74 72 64 68 79 84 77 78 76 76 76 77 81 81 77 72 68 62 59 58 55 56 58 57 59 59 57 53 52 54 54 58 62 63 70 70 68
89 83 98 83 81 70 79 73 73 73 75 79 83 89 86 84 83 87 85 81 78 74 70 65 58 53 52 58 59 56 61 58 53 52 53 55 56 61 65 66 68 72 72
87 78 91 98 83 81 81 84 76 80 78 76 77 80 83 87 88 87 83 81 78 77 69 65 61 54 56 56 65 59 57 55 55 53 54 56 56 67 72 76 75 76 80
94 89 84 76 80 90 83 90 86 78 83 86 85 78 74 82 85 88 86 81 80 76 69 62 60 57 64 66 63 55 55 53 53 58 59 56 57 70 74 75 77 76 78
86 80 74 65 68 79 81 82 77 83 86 87 87 86 81 80 82 86 88 87 85 81 74 66 63 67 70 66 60 60 60 47 54 61 62 62 61 68 70 79 84 88 88
89 86 84 79 87 86 77 70 76 81 85 93 90 91 91 90 87 90 91 87 82 82 80 80 80 88 80 81 73 65 56 52 47 45 60 62 62 63 71 80 87 91 92
98 91 78 86 92 91 84 72 68 70 76 82 85 92 87 79 93 99 90 85 90 90 90 98 97 91 79 82 80 82 76 62 55 48 55 63 68 67 70 73 78 87 90
96 98 91 87 90 87 88 83 82 76 73 80 76 96 90 86 84 81 82 80 90 98 99 98 94 88 77 67 56 59 58 57 61 59 59 49 68 68 74 76 76 80 89
97 95 90 94 93 90 89 79 78 78 79 86 95 99 97 92 88 85 85 81 99 100 95 88 94 97 97 90 73 58 58 60 62 64 64 54 58 60 72 80 85 86 92
Wind_Speed
16 26 27 22 19 17 15 15 15 18 19 19 19 20 20 20 20 20 20 19 20 18 16 18 17 19 17 14 16 16 17 17 18 18 17 18 17 17 15 14 12 13 12
18 24 27 22 18 17 15 14 15 18 21 21 21 21 20 21 20 20 19 18 20 19 17 18 17 16 16 15 15 16 17 19 19 17 17 16 18 15 15 15 14 13 15
23 25 25 22 20 18 17 16 18 19 22 23 23 23 22 21 20 20 19 19 19 18 18 17 16 15 14 13 14 14 15 16 17 14 13 11 12 13 13 16 14 14 16
22 23 24 23 20 19 19 16 19 22 23 24 25 25 23 22 20 20 20 19 21 18 18 15 14 13 13 12 13 12 12 13 14 12 11 11 10 11 12 13 13 14 14
19 21 22 23 22 20 19 16 19 23 23 25 24 25 23 23 21 20 21 22 21 19 16 15 15 15 14 14 14 14 15 17 15 12 11 11 11 11 10 10 10 11 12
20 20 22 23 22 20 20 16 19 23 24 25 24 24 25 23 21 22 22 22 21 18 17 16 15 14 14 14 14 13 14 14 13 10 11 11 11 11 11 11 9 9 9
21 20 21 24 22 21 21 17 19 24 24 24 25 26 27 24 22 23 22 22 21 18 15 15 15 13 13 12 12 12 12 12 9 9 9 9 9 10 10 10 10 9 8
22 21 21 23 21 22 23 19 18 24 24 24 26 26 25 23 23 22 22 21 20 17 16 16 14 12 10 10 9 9 10 10 7 8 8 8 9 8 8 9 9 8 8
19 17 21 21 19 21 22 22 20 23 26 28 26 22 21 21 23 22 23 21 19 16 15 15 13 11 10 8 7 7 7 9 6 5 6 6 7 6 6 7 7 7 7
6 17 19 21 21 19 18 23 22 23 25 27 24 20 20 21 21 22 21 20 18 15 13 13 11 10 8 7 5 4 5 6 4 4 4 2 4 4 4 5 5 6 6
20 36 20 22 23 21 18 19 23 23 24 23 21 21 22 19 20 21 18 19 17 16 14 12 10 8 6 4 3 3 3 1 1 2 3 2 2 2 3 4 4 4 5
14 28 42 27 26 25 22 19 19 20 19 17 18 19 19 18 17 17 16 17 16 16 13 11 9 7 5 3 2 2 1 2 1 1 3 4 2 1 1 3 4 4 5
9 25 34 31 30 29 26 23 21 21 21 20 19 20 17 18 17 14 14 14 12 13 9 9 8 6 5 5 4 4 3 3 2 2 4 3 2 2 2 3 5 6 7
25 16 30 36 32 34 26 26 23 22 22 22 22 21 18 17 17 15 14 13 12 12 10 9 7 7 6 6 5 4 4 4 3 3 4 4 3 3 4 5 7 8 9
17 12 10 24 23 30 26 24 23 23 21 20 20 18 17 15 16 14 13 12 11 11 10 9 7 7 7 7 6 6 6 6 4 3 3 5 3 5 7 8 9 11 12
28 15 10 21 19 19 23 22 21 20 20 19 19 17 15 14 14 13 12 10 9 9 9 9 8 8 7 7 7 7 6 5 4 4 4 6 5 6 8 7 10 10 10
25 13 4 10 19 17 16 17 21 21 19 17 16 16 15 14 14 13 11 9 9 8 8 8 8 8 7 7 7 6 6 6 5 5 6 4 7 9 8 11 12 10 12
19 24 16 16 18 16 16 17 17 17 19 18 18 16 15 14 14 14 12 11 10 10 9 9 9 8 8 8 7 7 6 6 6 7 7 6 8 8 10 14 9 13 12
21 28 33 30 18 19 15 16 16 17 17 18 17 17 17 15 14 13 11 11 11 11 11 10 10 9 8 8 8 7 6 7 6 6 7 8 9 10 10 11 11 13 10
26 26 28 23 17 13 14 15 13 16 16 17 18 17 17 17 16 13 10 9 10 11 11 11 11 10 9 8 5 6 7 7 7 7 6 6 4 5 4 4 5 6 5
26 25 26 26 20 14 12 17 14 16 14 16 16 16 17 16 15 14 11 10 11 11 12 12 12 12 11 7 8 8 9 7 8 3 3 2 4 2 4 4 3 4 5
25 26 21 25 18 19 17 18 15 15 13 13 12 13 13 14 13 13 11 9 8 10 11 13 12 11 11 11 6 1 3 4 7 2 2 4 2 3 4 4 2 1 3
22 22 20 19 19 20 17 14 12 13 11 8 11 10 10 10 12 14 12 12 13 13 15 13 11 9 9 5 3 2 2 2 3 5 4 1 3 4 1 2 1 2 5
11 12 19 11 13 15 16 16 15 11 9 11 12 10 11 8 10 10 9 8 10 13 16 12 10 4 6 4 1 1 4 5 2 2 4 6 3 3 4 3 2 1 1
6 9 16 15 19 21 25 22 16 13 6 7 11 10 10 10 8 9 6 5 11 16 18 19 15 11 6 4 3 1 2 4 5 3 4 2 5 5 5 4 5 3 4
12 11 15 22 23 22 19 18 19 22 19 15 13 15 15 14 12 9 10 6 10 22 22 11 19 21 17 18 14 13 11 5 4 6 5 6 8 7 6 4 5 4 4
Wind_Direction
151 159 172 169 166 165 168 167 170 175 168 166 162 156 153 150 142 138 134 132 134 126 118 106 101 102 105 101 93 89 93 99 94 90 85 79 82 77 69 75 71 66 71
157 160 174 177 170 168 168 168 169 172 167 167 162 153 151 149 141 139 135 138 130 128 121 112 106 106 107 104 96 91 99 103 95 92 81 72 76 73 70 76 80 65 65
154 162 169 175 174 169 168 173 174 168 167 167 162 156 152 150 145 141 138 133 130 132 121 118 113 108 102 103 104 104 106 105 95 88 90 78 75 72 70 70 67 68 69
149 166 170 175 174 171 170 174 172 170 171 168 163 160 156 150 144 141 142 138 134 136 131 131 118 116 109 107 109 109 107 102 88 72 82 80 75 70 71 69 64 62 64
165 174 174 177 172 172 172 171 170 171 174 167 165 161 156 146 144 142 142 139 144 140 136 134 123 120 117 112 109 107 104 97 84 80 82 75 76 70 70 74 64 68 73
177 178 178 179 173 174 172 166 172 171 174 167 167 162 153 146 145 146 143 149 141 144 148 139 128 123 118 113 110 107 105 94 83 86 80 74 76 72 69 72 77 71 65
181 173 174 182 179 176 172 163 171 172 172 170 164 156 145 146 148 150 150 148 147 148 152 136 139 128 121 118 112 108 103 91 92 87 85 82 78 75 72 69 71 71 71
179 175 172 181 181 176 174 164 160 170 169 165 161 152 148 152 150 152 153 152 152 154 143 141 142 136 129 122 118 113 106 101 82 88 89 87 82 75 72 71 71 70 67
191 182 173 175 177 179 176 170 155 155 161 159 155 152 152 158 153 158 158 156 158 156 150 144 141 139 137 137 130 119 111 108 93 94 96 94 90 82 74 69 64 59 53
349 183 180 179 175 173 172 176 165 153 157 157 154 154 158 154 155 160 160 161 162 161 164 153 151 149 145 141 140 129 112 97 92 109 106 127 111 92 70 60 51 43 35
269 289 199 185 182 174 172 174 173 166 155 153 152 157 152 152 152 159 162 165 167 170 175 166 165 165 160 160 168 171 135 87 112 145 160 229 157 121 55 41 34 24 16
241 272 291 188 185 173 168 166 168 167 164 159 157 159 159 158 160 161 165 166 174 180 178 180 183 178 164 188 208 192 155 198 193 185 205 247 215 188 280 342 350 343 342
241 260 267 222 194 168 164 170 165 166 171 171 169 168 166 162 160 154 163 166 173 177 178 186 193 191 210 198 199 210 223 230 231 214 229 252 238 245 262 280 301 303 307
197 226 268 229 193 169 172 172 168 168 171 168 168 171 168 165 168 167 168 171 175 183 189 191 202 205 206 212 212 223 219 223 232 237 244 284 267 273 284 283 288 300 300
168 213 253 242 182 159 169 177 170 166 166 166 169 171 171 169 171 171 172 175 181 186 193 196 206 209 210 214 221 222 226 232 237 244 259 273 294 300 296 289 292 289 289
174 174 259 206 162 167 172 175 171 169 165 161 166 171 172 170 171 172 173 179 184 194 198 203 206 209 211 216 221 229 236 240 250 247 255 276 259 295 300 300 296 307 305
164 142 166 285 162 173 183 179 173 168 167 171 166 172 173 172 172 171 174 180 188 198 206 209 211 212 218 224 229 236 239 248 242 257 265 276 284 295 285 302 301 294 302
143 144 196 200 195 176 184 187 181 179 168 171 177 178 179 180 179 179 179 184 188 192 196 209 214 216 220 217 224 227 237 240 257 273 286 281 292 305 313 307 291 297 291
157 154 176 187 203 181 187 183 181 181 178 179 178 183 187 186 187 186 192 196 192 196 201 215 216 217 219 223 226 237 261 270 280 280 282 301 303 302 298 299 303 304 281
168 170 174 186 192 186 201 185 179 179 185 184 183 185 188 194 195 199 202 207 208 207 205 211 222 213 224 226 228 250 259 258 266 276 292 300 309 321 315 308 307 286 285
175 172 177 184 195 202 206 191 179 182 182 183 187 186 190 191 197 201 205 213 216 221 215 221 216 218 210 224 239 241 238 244 257 288 282 277 323 341 345 343 334 271 298
163 165 180 194 204 221 229 207 190 174 185 189 182 186 187 192 192 200 206 213 227 230 234 227 223 224 222 212 223 73 265 200 165 163 187 313 318 316 335 7 39 212 179
146 166 158 168 200 220 214 193 185 170 159 156 174 173 179 192 195 203 208 221 237 233 232 232 219 219 221 192 190 289 252 233 35 235 193 273 297 295 311 348 71 141 203
142 180 180 180 213 216 223 213 200 201 190 165 177 176 160 163 179 196 196 221 244 236 240 196 194 190 156 157 206 210 301 313 303 296 170 202 207 250 268 271 257 230 209
123 185 199 222 240 247 242 229 211 209 222 221 229 196 197 197 216 221 231 232 253 239 222 214 175 174 173 163 181 196 244 256 248 274 293 248 205 245 257 268 265 236 229
207 212 215 242 249 245 235 230 240 245 239 237 248 218 233 230 231 234 230 229 263 208 180 188 207 215 223 236 213 211 200 194 202 230 252 273 282 276 243 256 258 265 242